Wind_Speed
20 19 19 19 19 18 17 16 16 15 15 14 14 15 15 16 16 15 14 13 14 14 14 15 15 16 17 18 19 20 21 23 23 24 25 26 27 27 27 28 29 30
20 19 20 20 20 19 18 17 17 17 15 14 15 16 17 17 16 15 14 14 14 15 15 15 16 17 17 18 20 21 22 23 23 25 26 27 27 27 28 29 30 31
20 21 22 22 21 20 19 18 18 17 15 15 16 17 18 18 16 15 15 15 16 16 16 16 17 17 18 19 20 21 22 23 24 25 26 27 28 28 29 30 31 33
21 23 24 22 21 19 19 18 17 16 16 16 17 17 18 18 16 16 16 16 17 17 17 17 17 18 19 20 21 21 22 23 24 26 27 27 28 29 30 31 32 34
22 24 23 21 20 19 18 18 17 17 17 17 17 18 18 18 17 17 17 17 18 18 18 18 18 19 20 20 21 21 22 24 25 26 28 29 30 31 32 33 33 34
23 23 23 21 20 19 18 18 18 17 18 18 18 18 18 17 17 18 18 19 19 18 18 19 19 20 21 21 21 22 24 25 26 27 29 30 32 33 33 34 34 35
23 23 22 21 19 18 19 19 19 19 18 18 18 18 18 18 19 19 20 20 19 19 19 20 20 21 21 21 22 23 25 26 27 29 31 32 34 34 34 34 35 35
23 22 22 21 19 18 19 20 20 20 19 19 19 19 19 19 20 20 20 20 21 21 21 21 21 21 21 22 23 24 26 27 29 31 32 34 35 36 36 35 35 35
23 22 21 20 19 19 19 21 21 20 20 20 20 20 20 20 21 21 21 21 22 22 22 22 22 22 23 23 24 26 27 29 31 33 34 36 37 37 37 36 35 36
23 21 20 20 19 19 20 21 22 21 21 20 20 20 20 20 21 21 21 22 22 23 23 23 23 24 24 25 26 28 29 31 33 35 36 38 39 38 37 36 36 36
24 22 21 20 20 20 21 22 22 22 21 21 20 20 20 21 21 21 22 23 23 24 24 24 25 25 26 27 28 30 31 33 35 36 38 39 40 39 38 37 36 37
24 23 22 21 21 21 21 23 23 23 22 21 21 21 20 21 21 22 23 23 24 25 25 26 26 27 28 29 30 31 33 35 36 38 39 40 40 39 38 37 37 37
23 23 23 22 21 21 22 23 24 23 23 22 21 21 21 21 22 22 24 25 25 26 26 27 28 28 29 30 32 33 35 36 38 39 40 40 40 39 38 37 37 38
23 23 23 22 21 21 22 23 23 23 23 22 22 21 21 22 23 24 25 26 26 27 27 28 28 29 31 32 33 35 36 38 39 40 41 40 40 39 38 38 38 38
24 23 23 22 21 21 22 23 23 23 22 22 22 22 22 23 24 25 26 26 27 27 28 29 29 30 32 33 35 37 38 39 40 41 41 40 39 39 39 39 39 39
24 24 23 22 22 21 22 23 23 22 22 22 22 23 24 25 25 26 26 27 28 28 29 30 31 32 34 35 37 38 39 40 41 41 40 39 39 40 40 40 40 39
24 24 24 23 22 22 22 22 22 23 23 23 23 24 25 25 26 26 27 28 28 29 30 31 32 34 36 37 38 39 40 40 40 40 39 39 39 39 41 42 42 42
25 25 24 24 23 23 22 22 22 23 24 24 24 25 26 26 27 27 28 29 30 31 32 33 34 36 37 38 39 40 40 40 40 39 38 38 38 39 41 43 44 44
25 25 25 25 24 24 23 23 22 23 24 24 25 26 26 27 28 29 29 30 32 33 34 35 35 37 38 38 39 40 40 39 39 38 38 38 38 39 40 42 44 45
25 25 25 25 25 25 25 24 23 24 25 25 26 27 27 28 29 30 31 32 33 34 35 35 36 37 38 39 39 39 39 38 38 38 38 38 38 39 41 42 42 43
25 25 26 27 27 26 26 25 25 25 25 26 27 28 29 29 30 31 32 33 34 34 34 35 36 37 38 38 38 38 38 38 38 38 38 38 38 39 41 41 41 41
26 27 27 28 28 27 27 26 26 26 27 27 28 29 29 30 30 31 32 33 33 33 34 35 36 37 37 38 38 38 38 38 38 38 38 38 38 40 40 40 40 40
28 28 29 29 29 28 27 27 27 27 27 28 28 29 30 30 30 31 32 33 33 34 35 35 36 37 37 38 38 38 38 38 38 37 37 37 39 40 40 39 39 40
29 29 29 29 29 28 28 27 27 27 27 28 28 29 30 31 31 32 33 34 35 35 35 36 36 37 37 37 38 38 37 37 37 37 37 38 39 39 38 38 38 39
28 28 28 28 28 28 27 27 27 27 27 28 29 29 31 32 32 33 34 34 35 36 36 36 37 37 37 37 37 37 37 37 36 37 38 39 39 38 37 38 38 39
26 26 26 26 27 26 26 26 26 26 27 28 30 31 31 32 33 33 34 34 35 36 37 37 37 37 37 37 37 36 36 36 37 37 38 38 37 37 37 38 38 39
Wind_Direction
275 275 275 275 273 271 267 263 261 264 268 269 265 262 263 267 267 262 255 254 259 264 268 274 279 282 285 288 292 296 300 302 304 306 308 309 309 311 315 320 324 326
275 274 275 275 274 271 265 261 260 263 266 266 263 262 263 265 262 256 254 257 261 265 270 275 279 282 285 288 292 296 300 302 305 307 307 307 309 314 319 323 327 329
273 273 274 273 271 269 265 262 261 260 262 262 262 262 261 260 256 253 255 259 262 267 272 276 279 281 285 288 292 297 300 303 305 306 307 309 313 319 323 325 328 329
270 271 272 271 270 269 267 264 260 258 261 262 260 260 257 255 253 253 257 259 264 269 273 277 279 281 285 288 293 297 301 303 304 305 309 313 318 322 324 325 327 328
267 268 270 270 268 269 269 264 259 259 263 262 259 257 254 252 253 255 258 260 265 271 274 276 279 282 285 289 294 298 300 302 304 307 312 317 320 322 323 324 325 327
267 267 268 269 268 269 268 261 257 259 262 261 257 254 252 252 254 256 259 262 267 272 274 276 279 282 286 290 294 298 299 302 305 310 315 318 320 321 321 322 323 324
264 265 267 268 268 268 265 259 256 258 260 257 253 252 252 253 255 256 260 264 268 271 273 276 279 282 286 291 294 297 299 303 308 311 315 317 319 319 319 319 320 321
261 264 265 267 269 268 263 257 256 256 255 253 250 250 252 253 255 258 262 266 268 270 272 275 278 281 286 291 294 297 301 305 309 311 314 315 317 317 317 317 317 318
261 262 262 264 267 266 259 254 253 252 251 250 249 250 252 254 257 260 264 266 268 270 272 275 278 282 286 290 294 298 302 305 308 310 312 313 315 315 314 314 315 316
260 260 260 263 266 263 256 251 249 249 249 249 249 251 254 256 259 262 265 267 268 271 274 276 279 281 286 290 294 298 302 304 306 308 310 311 312 313 312 312 312 313
257 258 259 263 266 263 256 250 248 249 250 250 251 253 256 258 261 263 266 268 271 273 275 276 278 281 286 290 294 298 301 303 305 306 308 309 310 311 310 309 310 311
254 255 258 263 265 262 256 250 248 249 251 251 252 254 257 260 262 265 268 271 273 274 275 276 279 282 286 291 295 298 300 301 303 305 306 308 308 308 308 308 308 309
251 252 256 262 264 262 258 253 250 250 251 252 253 255 258 262 265 268 271 273 273 273 275 277 280 284 288 292 295 297 298 300 302 303 305 306 307 306 306 306 306 307
249 252 256 261 263 262 260 256 252 251 251 252 254 256 260 263 267 269 271 272 273 273 275 278 282 286 289 292 294 296 297 299 301 303 304 305 305 305 305 304 305 305
249 253 257 260 262 261 260 257 254 252 252 253 255 257 261 264 266 268 270 271 272 274 277 280 283 287 289 291 293 295 297 299 301 302 303 304 304 304 304 303 303 304
250 253 256 259 260 260 259 256 254 253 252 253 254 257 260 263 265 267 269 271 273 276 279 281 285 287 289 291 293 295 297 299 300 302 303 304 304 304 304 303 301 301
250 253 256 259 259 259 258 257 255 253 253 253 255 257 260 262 265 268 270 273 275 278 281 283 286 288 289 292 294 295 297 298 300 302 303 304 304 305 305 303 300 298
251 253 255 257 258 259 259 258 256 255 255 256 256 259 261 264 267 269 272 275 277 279 282 284 287 288 290 292 293 295 297 299 300 301 302 303 304 305 306 304 301 298
252 253 254 256 258 259 260 260 258 257 258 259 260 262 264 266 269 271 273 276 278 280 282 285 287 288 290 291 293 295 297 299 300 300 301 302 303 304 304 304 304 302
251 252 253 256 257 259 260 260 260 260 262 262 263 264 266 267 269 272 274 276 278 281 284 286 287 287 289 291 293 295 297 298 299 299 300 301 302 303 304 304 306 306
249 251 253 255 256 258 259 260 261 262 264 265 266 267 268 269 272 274 276 278 281 283 285 285 286 287 290 292 293 295 297 297 298 299 300 301 301 303 304 305 306 308
247 249 250 253 255 257 258 260 262 263 265 266 268 269 271 272 274 276 278 280 282 283 284 285 286 289 291 292 294 295 297 298 298 299 300 301 302 303 304 304 305 306
247 249 251 253 255 256 258 261 263 264 266 268 270 271 273 275 276 277 279 280 281 282 284 286 288 290 292 293 294 296 297 298 298 298 300 301 301 303 304 303 303 304
249 250 252 254 256 258 260 262 264 266 268 270 271 273 275 276 278 279 280 282 283 285 286 288 290 291 292 294 295 296 297 297 297 298 299 300 300 302 303 303 302 302
251 253 255 257 259 260 261 263 265 267 269 271 272 274 276 277 279 280 281 283 285 287 288 290 291 292 293 294 295 296 296 296 297 299 299 300 301 301 302 303 302 301
253 254 256 257 258 261 262 264 266 268 270 272 274 276 277 278 279 280 281 283 285 287 289 291 291 292 293 294 294 295 295 296 298 299 299 300 301 302 304 306 306 305
Height
5801 5801 5801 5802 5801 5802 5802 5802 5802 5803 5803 5803 5803 5804 5804 5804 5805 5805 5805 5805 5805 5805 5805 5805 5805 5805 5805 5805 5805 5805 5804 5803 5802 5801 5799 5798 5797 5795 5793 5791 5788 5786
5799 5799 5800 5800 5800 5800 5800 5801 5801 5801 5802 5802 5802 5803 5803 5803 5803 5803 5803 5803 5803 5804 5804 5804 5804 5804 5804 5804 5803 5803 5802 5801 5800 5798 5797 5796 5794 5793 5790 5788 5785 5783
5798 5798 5798 5798 5798 5798 5799 5799 5799 5799 5800 5800 5801 5801 5801 5801 5801 5802 5802 5802 5802 5802 5802 5802 5802 5802 5802 5802 5801 5800 5799 5798 5798 5796 5795 5794 5792 5790 5787 5785 5782 5780
5797 5796 5796 5796 5796 5796 5797 5797 5797 5797 5798 5798 5799 5799 5799 5800 5800 5800 5800 5800 5800 5800 5800 5800 5800 5800 5800 5800 5799 5798 5797 5796 5795 5794 5793 5791 5789 5787 5784 5782 5779 5777
5795 5795 5794 5794 5794 5795 5795 5795 5795 5795 5796 5796 5797 5797 5797 5798 5798 5798 5798 5798 5798 5798 5798 5798 5798 5798 5798 5797 5797 5796 5795 5794 5793 5791 5790 5788 5786 5784 5781 5779 5776 5774
5792 5792 5792 5792 5793 5793 5793 5793 5793 5794 5794 5794 5795 5795 5795 5796 5796 5796 5796 5796 5796 5796 5796 5796 5796 5796 5796 5795 5794 5794 5793 5792 5790 5789 5787 5785 5783 5781 5778 5776 5774 5771
5790 5790 5790 5790 5790 5791 5791 5791 5791 5792 5792 5792 5793 5793 5793 5794 5794 5794 5794 5794 5794 5794 5794 5794 5794 5794 5793 5793 5792 5791 5790 5789 5787 5786 5784 5782 5780 5778 5775 5773 5771 5768
5787 5787 5787 5788 5788 5789 5789 5789 5789 5790 5790 5790 5791 5791 5791 5792 5792 5792 5792 5792 5792 5792 5792 5792 5792 5791 5791 5790 5790 5789 5787 5786 5784 5783 5781 5779 5777 5775 5773 5770 5768 5765
5785 5785 5785 5785 5786 5787 5787 5787 5787 5788 5788 5789 5789 5789 5789 5790 5790 5790 5790 5790 5790 5790 5790 5790 5789 5789 5788 5788 5787 5786 5784 5783 5781 5780 5778 5776 5774 5772 5770 5767 5765 5762
5782 5783 5783 5783 5784 5785 5785 5785 5785 5786 5786 5787 5787 5787 5787 5787 5787 5788 5788 5788 5788 5788 5787 5787 5787 5786 5786 5785 5784 5782 5781 5780 5778 5776 5775 5772 5771 5769 5767 5764 5762 5759
5780 5780 5781 5781 5782 5782 5783 5783 5783 5784 5784 5784 5784 5785 5785 5785 5785 5785 5785 5785 5785 5785 5785 5785 5784 5784 5783 5782 5781 5779 5778 5776 5775 5773 5771 5769 5767 5765 5763 5761 5759 5756
5778 5778 5779 5779 5780 5780 5781 5781 5781 5782 5782 5782 5782 5782 5782 5782 5783 5783 5783 5783 5783 5782 5782 5782 5782 5781 5780 5779 5777 5776 5775 5773 5772 5770 5768 5766 5764 5762 5760 5757 5755 5753
5775 5776 5776 5777 5778 5778 5778 5778 5779 5779 5779 5780 5780 5780 5780 5780 5780 5780 5780 5780 5780 5780 5780 5779 5779 5778 5776 5775 5774 5773 5771 5770 5768 5767 5765 5763 5761 5758 5756 5754 5751 5749
5773 5773 5774 5775 5775 5776 5776 5776 5776 5776 5777 5777 5777 5777 5777 5778 5778 5778 5778 5778 5777 5777 5777 5776 5775 5774 5773 5772 5771 5769 5768 5766 5765 5763 5761 5759 5757 5755 5753 5750 5748 5745
5770 5771 5772 5772 5773 5773 5773 5773 5773 5774 5774 5774 5775 5775 5775 5775 5775 5775 5775 5775 5774 5774 5773 5773 5772 5771 5770 5769 5767 5766 5765 5763 5761 5759 5758 5756 5753 5751 5749 5746 5744 5742
5768 5768 5769 5769 5770 5770 5770 5770 5771 5772 5772 5772 5772 5772 5772 5772 5772 5772 5772 5772 5771 5771 5770 5769 5769 5767 5766 5765 5764 5763 5761 5760 5758 5756 5754 5752 5749 5747 5745 5742 5740 5738
5765 5766 5766 5767 5767 5768 5768 5768 5769 5769 5769 5769 5770 5770 5770 5770 5769 5769 5769 5768 5768 5767 5767 5766 5765 5764 5763 5762 5760 5759 5757 5756 5754 5752 5750 5748 5746 5743 5741 5738 5736 5733
5762 5763 5764 5764 5765 5765 5765 5766 5766 5766 5766 5767 5767 5767 5767 5766 5766 5766 5766 5765 5765 5764 5763 5762 5762 5760 5759 5758 5757 5755 5754 5752 5750 5748 5746 5744 5742 5740 5737 5735 5732 5730
5760 5760 5761 5761 5762 5762 5762 5763 5763 5763 5763 5764 5764 5764 5763 5763 5763 5763 5762 5762 5761 5760 5759 5759 5758 5757 5756 5754 5753 5751 5750 5748 5746 5744 5742 5740 5738 5736 5733 5731 5728 5726
5757 5758 5758 5758 5759 5759 5760 5760 5760 5760 5760 5761 5761 5760 5760 5760 5759 5759 5759 5758 5757 5756 5756 5756 5754 5753 5752 5750 5749 5747 5746 5744 5742 5740 5738 5736 5734 5732 5729 5727 5724 5722
5754 5755 5755 5755 5756 5756 5757 5757 5757 5758 5758 5758 5757 5757 5756 5756 5756 5755 5755 5754 5754 5753 5752 5752 5750 5749 5748 5746 5745 5743 5742 5740 5737 5735 5734 5732 5730 5728 5726 5723 5721 5719
5751 5752 5752 5752 5752 5753 5753 5754 5754 5754 5754 5754 5754 5753 5753 5752 5752 5752 5751 5751 5750 5749 5749 5748 5746 5745 5744 5742 5741 5739 5737 5735 5733 5731 5730 5728 5726 5724 5722 5720 5718 5716
5748 5748 5749 5749 5749 5750 5750 5750 5751 5751 5751 5751 5751 5750 5749 5749 5749 5748 5748 5747 5746 5745 5745 5744 5742 5741 5740 5738 5736 5735 5733 5731 5729 5727 5726 5724 5721 5719 5718 5716 5714 5712
5744 5745 5745 5746 5746 5746 5747 5747 5747 5748 5748 5747 5747 5747 5746 5745 5745 5745 5744 5743 5742 5741 5740 5740 5738 5737 5735 5733 5732 5730 5729 5727 5725 5723 5721 5719 5717 5715 5714 5712 5710 5708
5742 5742 5742 5743 5743 5743 5744 5744 5744 5744 5744 5744 5743 5743 5743 5742 5741 5741 5740 5739 5738 5737 5736 5735 5734 5732 5731 5729 5727 5726 5724 5722 5721 5719 5717 5715 5713 5711 5710 5708 5706 5704
5738 5739 5739 5739 5740 5740 5740 5741 5741 5741 5740 5740 5739 5739 5739 5738 5737 5737 5736 5735 5734 5733 5732 5731 5730 5728 5727 5725 5723 5721 5720 5718 5717 5715 5713 5711 5709 5707 5705 5704 5702 5700